Estación Meteorológica Peña el Pijo (Robertgarden) [ 07/12/20 00:24:12 CEST ]

Fecha Hora Presion(HPa) Temp (°C) Humedad % Rocio (°C) Viento ( m/s) Direccion Lluvia 1Hora(mm) Lluvia 24H(mm) LLuvia Total(mm)
2019-Dec-25 01:09:11 1016.800 - - - - WNW     39.88
2019-Dec-25 02:13:45 1016.200 - - - - WNW     39.88
2019-Dec-25 03:12:25 1016.100 - - - - WNW     39.88
2019-Dec-25 04:09:06 1015.800 - - - - WNW     39.88
2019-Dec-25 05:09:16 1015.400 - - - - WNW     39.88
2019-Dec-25 06:09:41 1015.300 - - - - WNW     39.88
2019-Dec-25 07:09:25 1015.200 - - - - WNW     39.88
2019-Dec-25 08:08:53 1015.400 - - - - WNW     39.88
2019-Dec-25 09:09:10 1015.500 - - - - WNW     39.88
2019-Dec-25 10:09:25 1015.700 - - - - WNW     39.88
2019-Dec-25 11:09:21 1015.600 - - - - WNW     39.88
2019-Dec-25 12:09:13 1015.000 - - - - WNW     39.88
2019-Dec-25 13:08:44 1014.200 - - - - WNW     39.88
2019-Dec-25 14:08:51 1013.200 - - - - WNW     39.88
2019-Dec-25 15:08:56 1013.200 - - - - WNW     39.88
2019-Dec-25 16:09:43 1013.400 - - - - WNW     39.88
2019-Dec-25 17:09:22 1013.700 - - - - WNW     39.88
2019-Dec-25 18:09:35 1014.300 - - - - WNW     39.88
2019-Dec-25 19:09:20 1014.800 - - - - WNW     39.88
2019-Dec-25 20:09:10 1015.400 - - - - WNW     39.88
2019-Dec-25 21:09:37 1015.400 - - - - WNW     39.88
2019-Dec-25 22:09:09 1015.700 - - - - WNW     39.88
2019-Dec-25 23:08:53 1015.700 - - - - WNW     39.88

Temperatura Máxima:    Temperatura Mínima:
Presión Máxima:1016.800 Hpa    Presión Mínima:1013.200 Hpa


Volver